Location: Powder Track
(41.8531°N, 72.3584°W)
Time: 16:41:37
(UTC+00:00)

Tiros 1 despin weight - Visible Passes

Search period start: 28 July 2021 00:00
Search period end: 07 August 2021 00:00
Orbit: 593 x 642 km, 48.2° (Epoch: 28 July)

Date Brightness Start Highest point End Pass type
(mag) Time Alt. Az. Time Alt. Az. Time Alt. Az.
28 Jul ? 02:14:47 10° WNW 02:18:57 33° SW 02:20:00 30° SSW visible
29 Jul ? 00:49:13 10° WNW 00:53:54 82° SSW 00:58:23 11° ESE visible
29 Jul ? 02:31:47 10° W 02:34:55 18° SW 02:35:24 18° SW visible
30 Jul ? 01:05:37 10° WNW 01:10:06 48° SW 01:13:51 14° SE visible
31 Jul ? 01:22:16 10° W 01:26:08 26° SW 01:29:23 13° S visible
01 Aug ? 01:39:41 10° W 01:42:03 14° SW 01:44:24 10° SSW visible
04 Aug ? 00:48:26 10° WSW 00:49:09 10° SW 00:49:52 10° SW visible
